User: anonymous   Login
Location: Unspecified
(0.0000°N, 0.0000°E)
Time: 03:08:13
(UTC+00:00)
Language:

ATS 3 - Orbit

View from above orbital plane
View from above orbital plane
View from above satellite
View from above satellite

Ground track
Ground track

The orbit data is extracted from the following two-line orbital elements,

1 03029U 67111A   24107.58039159 -.00000097  00000-0  00000-0 0  9991
2 03029   1.1347  86.4771 0018017  11.6395 210.8955  1.00271855206699
Epoch (UTC): 16 April 2024 13:55:45
Eccentricity: 0.0018017
inclination: 1.1347°
perigee height: 35710 km
apogee height: 35862 km
right ascension of ascending node: 86.4771°
argument of perigee: 11.6395°
revolutions per day: 1.00271855
mean anomaly at epoch: 210.8955°
orbit number at epoch: 20669

The dashed part of the orbit path shows where the satellite is in the earth's shadow,  

DLR